Torna al catalogo

COSMOS 1867 COOLANT

AttivoLEO
NORAD 39670·DEBRIS·🇷🇺 Russia

Lanciato Jul 10, 1987 da Baikonur Cosmodrome

Loading…

Prossimi Passaggi (prossime 24 ore)

TLE

AggiornatoSource: Space-Track

Epoca: Sep 14, 2026, 02:43 UTC

1 39670U 87060AH  26257.11334106  .00000138  00000-0  85146-4 0  9997
2 39670  65.0090 118.9259 0018419 282.7911  77.1116 14.34036933649395

Traccia COSMOS 1867 COOLANT in tempo reale con AllMySat

Download on the App Store